• Join FlightAware (Why Join?)
  • Login
  • US Flag GB Flag 
06:13 EDT


 

Airport Tracker/Info


-or-


 

Live Flight TrackerFlight Track Log ✈ DAL3860 ✈ 27-Apr-2013 ✈ KCLE - KMSP

Flight Track Log - Related Links

Times and Time Zones

All times are in EDT time to prevent confusion due to time zone crossing. See the DAL3860 flight status page for this flight to view local times or setup timezone preferences in your user account.

Time Position Orientation Groundspeed Altitude Reporting Facility
EDT Latitude Longitude Course Direction KTS MPH feet Rate Location/Type
09:12 41.3939 -81.8786 270° West 162 186 1,700  Level Cleveland Center
09:13 41.3956 -81.9144 274° West 190 219 2,500 2,280 Climbing Cleveland Center
09:14 41.3964 -82.0308 271° West 270 311 5,900 2,940 Climbing Cleveland Center
09:15 41.3495 -82.2459 260° West  Level FlightAware Approximate
09:15 41.3931 -82.1194 267° West 281 323 9,400  Level Cleveland Center
09:16 41.3302 -82.3793 252° West  Level FlightAware Approximate
09:16 41.3664 -82.2403 254° West 290 334 11,000  Level Cleveland Center
09:17 41.3000 -82.5088 270° West  Level FlightAware Approximate
09:17 41.3394 -82.3725 255° West 343 395 13,300  Level Cleveland Center
09:18 41.3100 -82.5100 254° West 377 434 15,200 1,800 Climbing Cleveland Center
09:19 41.2908 -82.6503 260° West 394 453 17,000 1,440 Climbing Cleveland Center
09:20 41.2694 -82.7961 259° West 394 453 18,100 1,200 Climbing Cleveland Center
09:21 41.2497 -82.9444 260° West 407 468 19,400 1,200 Climbing Cleveland Center
09:22 41.2778 -83.0919 284° West 407 468 20,500 1,020 Climbing Cleveland Center
09:23 41.3206 -83.2347 292° West 417 480 21,500 1,020 Climbing Cleveland Center
09:24 41.3672 -83.3750 294° West 417 480 22,600 960 Climbing Cleveland Center
09:25 41.4117 -83.5181 293° West 417 480 23,500 840 Climbing Cleveland Center
09:26 41.4642 -83.6589 296° West 422 486 24,300 720 Climbing Cleveland Center
09:27 41.5186 -83.7975 298° West 422 486 25,000 600 Climbing Cleveland Center
09:28 41.5750 -83.9419 298° West 434 499 25,600 600 Climbing Cleveland Center
09:29 41.6272 -84.0836 296° West 434 499 26,200 600 Climbing Cleveland Center
09:31 41.7567 -84.4139 298° West 431 496 27,600 540 Climbing Chicago Center
09:32 41.8092 -84.5547 297° West 428 493 28,200 540 Climbing Chicago Center
09:33 41.8628 -84.6958 297° West 428 493 28,800 480 Climbing Chicago Center
09:34 41.9156 -84.8381 297° West 428 493 29,300 480 Climbing Chicago Center
09:35 41.9672 -84.9789 296° West 427 491 29,800 300 Climbing Chicago Center
09:36 42.0219 -85.1303 296° West 428 493 30,000 60 Climbing Chicago Center
09:37 42.0767 -85.2767 297° West 436 502 30,000  Level Chicago Center
09:38 42.1303 -85.4253 296° West 442 509 30,000  Level Chicago Center
09:39 42.1856 -85.5764 296° West 447 514 30,000  Level Chicago Center
09:40 42.2397 -85.7269 296° West 447 514 30,000  Level Chicago Center
09:41 42.3047 -85.9075 296° West 443 510 30,000  Level Chicago Center
09:42 42.3686 -86.0564 300° West 453 521 30,000  Level Chicago Center
09:43 42.4364 -86.1994 303° West 450 518 30,000  Level Chicago Center
09:45 42.5036 -86.3469 302° West 456 525 30,000  Level Chicago Center
09:46 42.5711 -86.4903 303° West 452 520 30,000  Level Chicago Center
09:47 42.6375 -86.6383 301° West 455 524 30,000  Level Chicago Center
09:48 42.7047 -86.7839 302° West 455 524 30,000  Level Chicago Center
09:49 42.7708 -86.9297 302° West 452 520 30,000  Level Chicago Center
09:50 42.8378 -87.0761 302° West 452 520 30,000  Level Chicago Center
09:51 42.9044 -87.2236 302° West 455 524 30,000  Level Chicago Center
09:52 42.9833 -87.4014 301° West 454 522 30,000  Level Chicago Center
09:53 43.0497 -87.5503 301° West 458 527 30,000  Level Chicago Center
09:54 43.1147 -87.6964 301° West 452 520 30,000  Level Chicago Center
09:55 43.1789 -87.8408 301° West 444 511 30,000  Level Chicago Center
09:56 43.2425 -87.9872 301° West 446 513 30,000  Level Chicago Center
09:57 43.3067 -88.1336 301° West 448 516 30,000  Level Chicago Center
09:58 43.3803 -88.3028 301° West 441 507 30,000  Level Chicago Center
09:59 43.4331 -88.4264 300° West 451 519 30,000  Level Chicago Center
10:00 43.5067 -88.5919 302° West 455 524 30,000  Level Chicago Center
10:01 43.5644 -88.7333 299° West 438 504 30,000  Level Chicago Center
10:02 43.6372 -88.9058 300° West 445 512 30,000  Level Chicago Center
10:03 43.6997 -89.0531 300° West 444 511 30,000  Level Chicago Center
10:04 43.7611 -89.2008 300° West 445 512 30,000  Level Chicago Center
10:05 43.8247 -89.3489 301° West 446 513 30,000  Level Chicago Center
10:06 43.8850 -89.4978 299° West 444 511 30,000  Level Chicago Center
10:07 43.9475 -89.6447 301° West 443 510 30,000  Level Chicago Center
10:08 44.0089 -89.7947 300° West 446 513 30,000  Level Chicago Center
10:09 44.0792 -89.9672 300° West 441 507 30,000  Level Minneapolis Center
10:10 44.1536 -90.1022 308° West 440 506 30,000  Level Minneapolis Center
10:11 44.2403 -90.2586 308° West 436 502 30,000  Level Minneapolis Center
10:12 44.3056 -90.4031 302° West 439 505 30,000  Level Minneapolis Center
10:13 44.3647 -90.5511 299° West 438 504 30,000  Level Minneapolis Center
10:14 44.4264 -90.6975 301° West 437 503 30,000 -600 Level Minneapolis Center
10:15 44.4861 -90.8472 299° West 442 509 28,900 -1,620 Descending Minneapolis Center
10:16 44.5481 -90.9983 300° West 434 499 26,800 -2,040 Descending Minneapolis Center
10:17 44.6033 -91.1375 299° West 418 481 24,800 -1,980 Descending Minneapolis Center
10:19 44.6569 -91.2739 299° West 407 468 22,800 -1,980 Descending Minneapolis Center
10:20 44.7106 -91.4075 299° West 398 458 20,800 -1,920 Descending Minneapolis Center
10:21 44.7614 -91.5381 299° West 388 447 19,000 -1,680 Descending Minneapolis Center
10:22 44.8114 -91.6689 298° West 382 440 17,400 -1,800 Descending Minneapolis Center
10:23 44.8692 -91.8169 299° West 367 422 15,400 -1,860 Descending Minneapolis Center
10:24 44.9161 -91.9381 299° West 357 411 13,700 -1,620 Descending Minneapolis Center
10:25 44.9636 -92.0614 299° West 360 414 12,200 -1,140 Descending Minneapolis Center
10:26 45.0097 -92.1817 299° West 350 403 11,200 -540 Descending Minneapolis Center
10:27 45.0450 -92.3056 292° West 350 403 11,000 -120 Descending Minneapolis Center
10:28 45.0219 -92.4636 258° West 346 398 11,000  Level Minneapolis Center
10:29 44.9972 -92.6217 258° West 344 396 11,000  Level Minneapolis Center
10:30 44.9758 -92.7519 257° West 343 395 11,000 -420 Level Minneapolis Center
10:31 44.9567 -92.8714 257° West 309 356 10,200 -1,140 Descending Minneapolis Center
10:32 44.9397 -92.9781 257° West 282 325 8,700 -1,080 Descending Minneapolis Center
10:33 44.9317 -93.0811 264° West 278 320 8,000 -600 Descending Minneapolis Center
10:34 44.9719 -93.1711 302° West 274 315 7,500 -1,320 Descending Minneapolis Center
10:35 45.0206 -93.2778 303° West 270 311 5,300 -1,740 Descending Minneapolis Center
10:36 45.0361 -93.3653 284° West 251 289 4,000 -1,320 Descending Minneapolis Center